When you browse on this site, cookies collect data to enhance your experience and personalize the content and advertising you see.
Visit our Privacy Policy to learn more. By continuing to use the site, you agree to this use of cookies and data.
  • In United Kingdom
  • List of Countries
  • For 7 days
  • Water Temperature
  • Weather Map
  • Weather Widgets
  • user-avatar
    Login

    Hourly Weather Kikinda

    Today, 11 November, Monday

    Time Temperature Precipitation Wind Pressure Humidity
    00:00 +7°C° 0 mm 2 mps 756 mmHg 81%
    01:00 +7°C° 0 mm 2 mps 756 mmHg 85%
    02:00 +7°C° 0 mm 2 mps 756 mmHg 85%
    03:00 +6°C° 0 mm 2 mps 756 mmHg 85%
    04:00 +6°C° 0 mm 2 mps 757 mmHg 85%
    05:00 +7°C° 0 mm 1 mps 757 mmHg 85%
    06:00 +7°C° 0 mm 1 mps 757 mmHg 84%
    07:00 +7°C° 0 mm 1 mps 758 mmHg 81%
    08:00 +8°C° 0 mm 1 mps 758 mmHg 75%
    09:00 +9°C° 0 mm 1 mps 758 mmHg 68%
    10:00 +11°C° 0 mm 1 mps 757 mmHg 62%
    11:00 +10°C° 0 mm 2 mps 757 mmHg 60%
    12:00 +12°C° 0 mm 2 mps 757 mmHg 58%
    13:00 +13°C° 0 mm 2 mps 757 mmHg 58%
    14:00 +13°C° 0 mm 2 mps 756 mmHg 61%
    15:00 +12°C° 0 mm 2 mps 756 mmHg 65%
    16:00 +12°C° 0 mm 2 mps 755 mmHg 68%
    17:00 +10°C° 0 mm 2 mps 755 mmHg 71%
    18:00 +10°C° 0 mm 2 mps 754 mmHg 75%
    19:00 +9°C° 0 mm 3 mps 754 mmHg 78%
    20:00 +9°C° 0 mm 3 mps 754 mmHg 79%
    21:00 +9°C° 0 mm 3 mps 754 mmHg 81%
    22:00 +9°C° 0 mm 3 mps 754 mmHg 82%
    23:00 +9°C° 0 mm 3 mps 754 mmHg 81%

    Tomorrow, 12 November, Tuesday

    Time Temperature Precipitation Wind Pressure Humidity
    00:00 +8°C° 0 mm 4 mps 753 mmHg 79%
    01:00 +8°C° 0 mm 4 mps 753 mmHg 78%
    02:00 +8°C° 0 mm 4 mps 753 mmHg 77%
    03:00 +8°C° 0 mm 4 mps 753 mmHg 75%
    04:00 +8°C° 0 mm 4 mps 752 mmHg 74%
    05:00 +10°C° 0 mm 4 mps 752 mmHg 73%
    06:00 +10°C° 0 mm 4 mps 752 mmHg 71%
    07:00 +10°C° 0 mm 4 mps 751 mmHg 70%
    08:00 +10°C° 0 mm 5 mps 751 mmHg 65%
    09:00 +13°C° 0 mm 5 mps 751 mmHg 61%
    10:00 +14°C° 0 mm 6 mps 750 mmHg 56%
    11:00 +16°C° 0 mm 7 mps 750 mmHg 54%
    12:00 +18°C° 0 mm 8 mps 749 mmHg 51%
    13:00 +19°C° 0 mm 9 mps 749 mmHg 48%
    14:00 +19°C° 0 mm 9 mps 748 mmHg 51%
    15:00 +18°C° 0 mm 9 mps 748 mmHg 55%
    16:00 +18°C° 0 mm 9 mps 747 mmHg 58%
    17:00 +18°C° 0 mm 9 mps 747 mmHg 59%
    18:00 +17°C° 0 mm 9 mps 748 mmHg 60%
    19:00 +17°C° 0 mm 8 mps 748 mmHg 60%
    20:00 +17°C° 0 mm 8 mps 747 mmHg 61%
    21:00 +17°C° 0 mm 7 mps 747 mmHg 62%
    22:00 +17°C° 0 mm 6 mps 747 mmHg 62%
    23:00 +17°C° 0 mm 7 mps 747 mmHg 61%

    Day after tomorrow, 13 November, Wednesday

    Time Temperature Precipitation Wind Pressure Humidity
    00:00 +18°C° 0 mm 7 mps 747 mmHg 60%
    01:00 +18°C° 0 mm 8 mps 746 mmHg 58%
    02:00 +17°C° 0 mm 7 mps 746 mmHg 58%
    03:00 +17°C° 0 mm 7 mps 746 mmHg 58%
    04:00 +17°C° 0 mm 7 mps 745 mmHg 58%
    05:00 +16°C° 0.5 mm 7 mps 746 mmHg 64%
    06:00 +16°C° 0.5 mm 7 mps 746 mmHg 70%
    07:00 +15°C° 0.5 mm 8 mps 746 mmHg 76%
    08:00 +16°C° 0 mm 8 mps 746 mmHg 71%
    09:00 +16°C° 0 mm 8 mps 746 mmHg 66%
    10:00 +17°C° 0 mm 8 mps 746 mmHg 61%
    11:00 +18°C° 0 mm 9 mps 745 mmHg 57%
    12:00 +19°C° 0 mm 10 mps 745 mmHg 53%
    13:00 +21°C° 0 mm 10 mps 744 mmHg 49%
    14:00 +19°C° 0 mm 10 mps 744 mmHg 51%
    15:00 +19°C° 0 mm 9 mps 744 mmHg 53%
    16:00 +18°C° 0 mm 8 mps 744 mmHg 55%
    17:00 +18°C° 0 mm 9 mps 744 mmHg 56%
    18:00 +18°C° 0 mm 9 mps 745 mmHg 56%
    19:00 +17°C° 0 mm 10 mps 745 mmHg 57%
    20:00 +17°C° 0 mm 9 mps 746 mmHg 58%
    21:00 +17°C° 0 mm 8 mps 746 mmHg 59%
    22:00 +16°C° 0 mm 7 mps 747 mmHg 60%
    23:00 +16°C° 0 mm 6 mps 747 mmHg 62%

    14 November, Thursday

    Time Temperature Precipitation Wind Pressure Humidity
    00:00 +15°C° 0 mm 5 mps 747 mmHg 65%
    01:00 +15°C° 0 mm 4 mps 748 mmHg 67%
    02:00 +14°C° 0 mm 3 mps 748 mmHg 70%
    03:00 +15°C° 0 mm 2 mps 748 mmHg 72%
    04:00 +14°C° 0 mm 2 mps 748 mmHg 75%
    05:00 +14°C° 0 mm 2 mps 748 mmHg 77%
    06:00 +14°C° 0 mm 2 mps 748 mmHg 78%
    07:00 +14°C° 0 mm 2 mps 748 mmHg 80%
    08:00 +14°C° 0 mm 3 mps 748 mmHg 74%
    09:00 +15°C° 0 mm 4 mps 748 mmHg 69%
    10:00 +17°C° 0 mm 5 mps 748 mmHg 63%
    11:00 +19°C° 0 mm 5 mps 748 mmHg 61%
    12:00 +19°C° 0 mm 4 mps 748 mmHg 58%
    13:00 +20°C° 0 mm 4 mps 748 mmHg 56%
    14:00 +19°C° 0 mm 4 mps 748 mmHg 59%
    15:00 +18°C° 0 mm 3 mps 748 mmHg 62%
    16:00 +18°C° 0 mm 3 mps 748 mmHg 65%
    17:00 +17°C° 0 mm 3 mps 748 mmHg 68%
    18:00 +16°C° 0 mm 3 mps 749 mmHg 72%
    19:00 +16°C° 0 mm 3 mps 749 mmHg 75%
    20:00 +14°C° 0 mm 3 mps 749 mmHg 77%
    21:00 +14°C° 0 mm 3 mps 750 mmHg 79%
    22:00 +14°C° 0 mm 3 mps 750 mmHg 81%
    23:00 +13°C° 0 mm 3 mps 750 mmHg 82%

    15 November, Friday

    Time Temperature Precipitation Wind Pressure Humidity
    00:00 +13°C° 0 mm 4 mps 750 mmHg 83%
    01:00 +13°C° 0 mm 4 mps 750 mmHg 85%
    02:00 +12°C° 0 mm 4 mps 750 mmHg 86%
    03:00 +12°C° 0 mm 4 mps 751 mmHg 87%
    04:00 +12°C° 0 mm 4 mps 751 mmHg 88%
    05:00 +12°C° 0 mm 4 mps 751 mmHg 88%
    06:00 +12°C° 0 mm 4 mps 751 mmHg 89%
    07:00 +11°C° 0 mm 4 mps 751 mmHg 89%
    08:00 +13°C° 0 mm 4 mps 752 mmHg 80%
    09:00 +15°C° 0 mm 5 mps 752 mmHg 70%
    10:00 +16°C° 0 mm 6 mps 752 mmHg 61%
    11:00 +17°C° 0 mm 6 mps 752 mmHg 58%
    12:00 +19°C° 0 mm 6 mps 752 mmHg 54%
    13:00 +20°C° 0 mm 6 mps 752 mmHg 51%
    14:00 +19°C° 0 mm 5 mps 752 mmHg 54%
    15:00 +17°C° 0 mm 5 mps 752 mmHg 57%
    16:00 +18°C° 0 mm 4 mps 752 mmHg 60%
    17:00 +17°C° 0 mm 4 mps 752 mmHg 64%
    18:00 +15°C° 0 mm 5 mps 753 mmHg 68%
    19:00 +15°C° 0 mm 5 mps 753 mmHg 72%
    20:00 +14°C° 0 mm 6 mps 753 mmHg 72%
    21:00 +14°C° 0 mm 6 mps 753 mmHg 73%
    22:00 +14°C° 0 mm 6 mps 754 mmHg 73%
    23:00 +14°C° 0 mm 6 mps 754 mmHg 74%

    16 November, Saturday

    Time Temperature Precipitation Wind Pressure Humidity
    00:00 +14°C° 0 mm 5 mps 754 mmHg 75%
    01:00 +13°C° 0 mm 5 mps 754 mmHg 76%
    02:00 +13°C° 0 mm 5 mps 754 mmHg 77%
    03:00 +13°C° 0 mm 6 mps 755 mmHg 78%
    04:00 +13°C° 0 mm 6 mps 755 mmHg 79%
    05:00 +13°C° 0 mm 6 mps 755 mmHg 79%
    06:00 +13°C° 0 mm 6 mps 755 mmHg 78%
    07:00 +13°C° 0 mm 6 mps 755 mmHg 78%
    08:00 +14°C° 0 mm 6 mps 756 mmHg 72%
    09:00 +16°C° 0 mm 7 mps 756 mmHg 65%
    10:00 +17°C° 0 mm 7 mps 756 mmHg 59%
    11:00 +18°C° 0 mm 7 mps 756 mmHg 56%
    12:00 +20°C° 0 mm 6 mps 756 mmHg 53%
    13:00 +20°C° 0 mm 6 mps 755 mmHg 51%
    14:00 +20°C° 0 mm 5 mps 755 mmHg 54%
    15:00 +19°C° 0 mm 4 mps 755 mmHg 58%
    16:00 +18°C° 0 mm 4 mps 755 mmHg 62%
    17:00 +17°C° 0 mm 4 mps 755 mmHg 65%
    18:00 +15°C° 0 mm 4 mps 755 mmHg 69%
    19:00 +14°C° 0 mm 4 mps 756 mmHg 72%
    20:00 +14°C° 0 mm 4 mps 756 mmHg 73%
    21:00 +14°C° 0 mm 4 mps 756 mmHg 74%
    22:00 +13°C° 0 mm 4 mps 756 mmHg 75%
    23:00 +13°C° 0 mm 4 mps 756 mmHg 76%
    Show more